Date,TemperatureHighF,TemperatureAvgF,TemperatureLowF,DewpointHighF,DewpointAvgF,DewpointLowF,HumidityHigh,HumidityAvg,HumidityLow,PressureMaxIn,PressureMinIn,WindSpeedMaxMPH,WindSpeedAvgMPH,GustSpeedMaxMPH,PrecipitationSumIn
2013-5-1,26,21,13,26,20,11,100,97,79,0.00,40.00,27,16,45,0.07
2013-5-2,40,26,10,19,11,5,84,56,26,0.00,40.00,24,10,33,0.00
2013-5-3,52,42,33,28,14,7,56,34,18,0.00,40.00,21,14,25,0.00
2013-5-4,49,42,36,28,24,20,69,51,35,0.00,40.00,34,21,49,0.00
2013-5-5,50,40,28,34,26,22,76,59,35,0.00,40.00,34,14,45,0.00
2013-5-6,57,46,35,33,29,25,79,54,32,0.00,40.00,21,7,35,0.00
2013-5-7,54,45,39,38,33,27,85,63,36,0.00,40.00,21,13,28,0.01
2013-5-8,52,44,37,39,34,30,95,69,43,0.00,40.00,27,11,35,0.04
2013-5-9,51,42,35,38,35,29,96,76,45,0.00,40.00,23,11,29,0.07
2013-5-10,58,46,37,36,28,-100,93,54,26,0.00,40.00,18,10,32,0.00
2013-5-11,61,49,37,35,26,-100,80,46,16,0.00,40.00,24,11,37,0.00
2013-5-12,67,56,44,30,27,24,52,33,19,0.00,40.00,22,13,37,0.00
2013-5-13,72,62,52,33,30,26,43,30,18,0.00,40.00,24,16,29,0.00
2013-5-14,72,64,58,32,27,23,33,25,16,0.00,40.00,22,15,28,0.00
2013-5-15,68,58,51,41,33,29,69,39,25,0.00,40.00,27,13,37,0.00
2013-5-16,67,53,46,45,20,-100,90,48,19,0.00,40.00,40,17,50,0.00
2013-5-17,69,58,48,35,21,-100,55,29,15,0.00,40.00,21,12,35,0.00
2013-5-18,58,48,42,38,31,21,80,52,25,0.00,40.00,31,16,43,0.00
2013-5-19,47,41,38,39,35,31,100,79,62,0.00,40.00,29,22,40,0.09
2013-5-20,44,39,35,38,35,26,100,86,58,0.00,40.00,32,20,39,0.10
2013-5-21,53,43,33,33,28,24,77,58,36,0.00,40.00,24,16,37,0.00
2013-5-22,63,52,38,40,34,29,81,52,28,0.00,40.00,45,15,58,0.00
2013-5-23,69,58,45,45,36,22,76,47,17,0.00,40.00,37,21,51,0.00
2013-5-24,67,57,44,28,21,13,50,26,14,0.00,40.00,22,14,32,0.00
2013-5-25,70,61,49,21,16,12,32,18,11,0.00,40.00,24,14,37,0.00
2013-5-26,71,63,54,23,16,10,24,16,12,0.00,40.00,21,13,29,0.00
2013-5-27,65,57,50,29,21,14,35,25,19,0.00,40.00,34,16,45,0.00
2013-5-28,63,53,43,39,25,13,79,35,22,0.00,40.00,28,11,48,0.00
2013-5-29,51,43,39,39,36,30,92,77,49,0.00,40.00,30,18,47,0.07
2013-5-30,52,44,37,33,26,16,85,54,24,0.00,40.00,45,33,57,0.00
2013-5-31,53,44,35,33,24,19,72,49,27,0.00,40.00,38,30,51,0.00